Franklin, NC

8:13 PM EDT on March 23, 2017 (GMT -0400)
Franklin

Weather History for K1A5 - March, 2013

Change the Weather History Date:

Tuesday, March 19, 2013

  Actual Average (KTOC) Record (KTOC)
Temperature  
Mean Temperature 44 °F -  
Max Temperature 55 °F 67 °F 73 °F (2016)
Min Temperature 32 °F 41 °F 39 °F (2017)
Degree Days  
Heating Degree Days 21    
Moisture  
Dew Point 25 °F    
Average Humidity 51    
Maximum Humidity 97    
Minimum Humidity 18    
Precipitation  
Precipitation 0.01 in - - ()
Sea Level Pressure  
Sea Level Pressure 30.00 in    
Wind  
Wind Speed 4 mph (NW)    
Max Wind Speed 16 mph    
Max Gust Speed 28 mph    
Visibility 9 miles    
Events Fog    
Averages and records for this station are not official NWS values.
T = Trace of Precipitation, MM = Missing Value Source: NWS Daily Summary

Daily Weather History Graph

Daily Weather History Graph

Search for Another Location

Airport or City:

Trip Planner

Search our weather history database for the weather conditions in past years. The results will help you decide how hot, cold, wet, or windy it might be!

Date:

Astronomy

Mar. 19, 2013 Rise Set
Actual Time 7:38 AM EDT 7:44 PM EDT
Civil Twilight 7:13 AM EDT 8:10 PM EDT
Nautical Twilight 6:43 AM EDT 8:39 PM EDT
Astronomical Twilight 6:13 AM EDT 9:09 PM EDT
Moon 12:39 PM EDT (3/19) 2:18 AM EDT (3/19)
Length of Visible Light 12h 57m
Length of Day
12h 06m
Waxing Crescent, 49% of the Moon is Illuminated
Mar 19
Waxing Crescent
Mar 19
First Quarter
Mar 27
Full
Apr 3
Last Quarter
Apr 10
New

Hourly Weather History & Observations

Time (EDT) Temp. Windchill Dew Point Humidity Pressure Visibility Wind Dir Wind Speed Gust Speed Precip Events Conditions
12:15 AM 44.2 °F - 43.2 °F 96% 29.89 in 0.2 mi Calm Calm - N/A Fog Fog
12:35 AM 44.2 °F - 43.2 °F 96% 29.89 in 0.5 mi Calm Calm - 0.01 in Fog Fog
12:55 AM 44.1 °F - 43.0 °F 96% 29.89 in 0.5 mi Calm Calm - 0.01 in Fog Fog
1:15 AM 44.2 °F - 43.2 °F 96% 29.89 in 0.5 mi Calm Calm - N/A Fog Fog
1:35 AM 44.2 °F - 43.2 °F 96% 29.89 in 1.5 mi Calm Calm - N/A   Overcast
1:55 AM 44.6 °F - 43.3 °F 95% 29.89 in 10.0 mi Calm Calm - N/A   Overcast
2:15 AM 44.6 °F - 43.3 °F 95% 29.89 in 10.0 mi Calm Calm - N/A   Overcast
2:55 AM 44.6 °F - 43.7 °F 97% 29.89 in 10.0 mi Calm Calm - N/A   Overcast
3:15 AM 44.6 °F 43.1 °F 43.5 °F 96% 29.89 in 10.0 mi East 3.5 mph - N/A   Overcast
3:55 AM 44.6 °F - 43.7 °F 97% 29.90 in 10.0 mi Calm Calm - N/A   Overcast
4:15 AM 44.6 °F - 43.7 °F 97% 29.89 in 7.0 mi Calm Calm - N/A   Overcast
4:35 AM 44.8 °F - 43.7 °F 96% 29.89 in 7.0 mi Calm Calm - N/A   Overcast
4:55 AM 44.8 °F - 43.7 °F 96% 29.90 in 7.0 mi Calm Calm - N/A   Overcast
5:15 AM 45.0 °F - 43.9 °F 96% 29.92 in 7.0 mi Calm Calm - N/A   Overcast
5:35 AM 46.0 °F 42.5 °F 44.8 °F 95% 29.92 in 10.0 mi NNW 6.9 mph 18.4 mph N/A   Overcast
5:55 AM 45.7 °F 42.0 °F 42.3 °F 88% 29.93 in 10.0 mi NNW 6.9 mph 16.1 mph N/A   Overcast
6:15 AM 44.6 °F 38.4 °F 37.6 °F 76% 29.95 in 10.0 mi WNW 12.7 mph 18.4 mph N/A   Overcast
6:35 AM 43.3 °F 37.2 °F 34.9 °F 72% 29.97 in 10.0 mi NNW 11.5 mph 18.4 mph N/A   Mostly Cloudy
6:55 AM 42.3 °F 37.9 °F 34.0 °F 72% 29.97 in 10.0 mi WNW 6.9 mph 16.1 mph N/A   Scattered Clouds
7:15 AM 41.9 °F 36.9 °F 34.2 °F 74% 29.99 in 10.0 mi NNW 8.1 mph - N/A   Scattered Clouds
7:35 AM 41.0 °F 37.1 °F 33.1 °F 73% 30.00 in 10.0 mi WNW 5.8 mph - N/A   Clear
7:55 AM 40.1 °F 36.9 °F 32.2 °F 73% 30.01 in 10.0 mi NW 4.6 mph - N/A   Clear
8:15 AM 40.5 °F 36.5 °F 32.0 °F 72% 30.01 in 10.0 mi NNW 5.8 mph - N/A   Clear
8:35 AM 41.0 °F 37.1 °F 32.2 °F 71% 30.01 in 10.0 mi North 5.8 mph - N/A   Clear
8:55 AM 41.0 °F 38.0 °F 31.6 °F 69% 30.01 in 10.0 mi NW 4.6 mph - N/A   Clear
9:15 AM 41.9 °F 39.0 °F 30.6 °F 64% 30.01 in 10.0 mi North 4.6 mph - N/A   Clear
9:35 AM 42.6 °F 39.0 °F 29.3 °F 59% 30.00 in 10.0 mi NNW 5.8 mph - N/A   Clear
9:55 AM 43.3 °F 40.7 °F 29.7 °F 59% 30.00 in 10.0 mi NNW 4.6 mph - N/A   Clear
10:15 AM 44.6 °F - 26.4 °F 49% 30.00 in 10.0 mi Calm Calm - N/A   Clear
10:35 AM 45.5 °F 41.8 °F 22.3 °F 40% 30.00 in 10.0 mi North 6.9 mph - N/A   Clear
10:55 AM 46.2 °F 44.1 °F 24.6 °F 43% 30.01 in 10.0 mi NNW 4.6 mph 9.2 mph N/A   Clear
11:15 AM 47.7 °F - 23.5 °F 39% 30.02 in 10.0 mi North 6.9 mph - N/A   Clear
11:35 AM 49.1 °F - 21.0 °F 33% 30.02 in 10.0 mi North 9.2 mph - N/A   Clear
11:55 AM 50.0 °F - 16.0 °F 26% 30.02 in 10.0 mi NNW 11.5 mph 16.1 mph N/A   Clear
12:15 PM 50.4 °F - 19.0 °F 29% 30.02 in 10.0 mi North 10.4 mph 19.6 mph N/A   Clear
12:35 PM 50.7 °F - 19.8 °F 30% 30.03 in 10.0 mi NW 5.8 mph 17.3 mph N/A   Clear
12:55 PM 50.9 °F - 18.5 °F 28% 30.02 in 10.0 mi North 10.4 mph 19.6 mph N/A   Clear
1:15 PM 52.0 °F - 17.1 °F 25% 30.02 in 10.0 mi NNW 11.5 mph 19.6 mph N/A   Clear
1:35 PM 52.9 °F - 13.3 °F 21% 30.02 in 10.0 mi NNW 11.5 mph 20.7 mph N/A   Clear
1:55 PM 53.4 °F - 16.9 °F 24% 30.02 in 10.0 mi NNW 10.4 mph 21.9 mph N/A   Clear
2:15 PM 54.1 °F - 16.3 °F 23% 30.02 in 10.0 mi NNW 8.1 mph 23.0 mph N/A   Clear
2:35 PM 55.0 °F - 16.0 °F 22% 30.01 in 10.0 mi NNW 10.4 mph 18.4 mph N/A   Clear
2:55 PM 54.7 °F - 15.8 °F 22% 30.01 in 10.0 mi North 11.5 mph 23.0 mph N/A   Clear
3:15 PM 55.4 °F - 17.8 °F 23% 30.01 in 10.0 mi NNE 13.8 mph 23.0 mph N/A   Clear
3:35 PM 55.6 °F - 19.6 °F 25% 30.02 in 10.0 mi North 16.1 mph 20.7 mph N/A   Clear
3:55 PM 55.6 °F - 21.2 °F 26% 30.02 in 10.0 mi WNW 6.9 mph 24.2 mph N/A   Clear
4:15 PM 55.6 °F - 20.7 °F 26% 30.02 in 10.0 mi NNW 9.2 mph 23.0 mph N/A   Clear
4:35 PM 55.6 °F - 20.8 °F 26% 30.03 in 10.0 mi WNW 12.7 mph 19.6 mph N/A   Clear
4:55 PM 55.6 °F - 18.7 °F 24% 30.03 in 10.0 mi NW 16.1 mph 24.2 mph N/A   Clear
5:15 PM 55.0 °F - 18.1 °F 24% 30.03 in 10.0 mi NW 15.0 mph 20.7 mph N/A   Clear
5:35 PM 54.5 °F - 17.8 °F 24% 30.04 in 10.0 mi NW 12.7 mph 27.6 mph N/A   Clear
5:55 PM 54.0 °F - 16.0 °F 22% 30.04 in 10.0 mi NW 13.8 mph 20.7 mph N/A   Clear
6:15 PM 53.8 °F - 15.4 °F 22% 30.03 in 10.0 mi NW 9.2 mph 18.4 mph N/A   Clear
6:35 PM 53.1 °F - 14.9 °F 22% 30.03 in 10.0 mi WNW 9.2 mph 20.7 mph N/A   Clear
6:55 PM 52.5 °F - 16.3 °F 24% 30.04 in 10.0 mi WNW 6.9 mph 19.6 mph N/A   Clear
7:15 PM 51.3 °F - 10.9 °F 20% 30.05 in 10.0 mi WNW 8.1 mph - N/A   Clear
7:35 PM 49.6 °F - 9.5 °F 20% 30.06 in 10.0 mi NW 6.9 mph - N/A   Clear
7:55 PM 48.4 °F - 8.6 °F 20% 30.06 in 10.0 mi West 8.1 mph - N/A   Clear
8:15 PM 48.2 °F - 9.3 °F 21% 30.07 in 10.0 mi WNW 5.8 mph - N/A   Clear
8:35 PM 47.5 °F - 7.5 °F 20% 30.07 in 10.0 mi WNW 4.6 mph 17.3 mph N/A   Clear
8:55 PM 46.8 °F - 4.6 °F 18% 30.08 in 10.0 mi WNW 5.8 mph - N/A   Clear
9:35 PM 45.0 °F 42.6 °F 3.2 °F 18% 30.08 in 10.0 mi NW 4.6 mph - N/A   Clear
9:55 PM 42.8 °F - 8.4 °F 24% 30.08 in 10.0 mi Calm Calm - N/A   Clear
10:15 PM 41.7 °F 38.8 °F 9.1 °F 26% 30.08 in 10.0 mi NW 4.6 mph - N/A   Clear
10:35 PM 42.6 °F - 5.5 °F 22% 30.08 in 10.0 mi Calm Calm - N/A   Clear
10:55 PM 38.3 °F 34.8 °F 16.0 °F 40% 30.08 in 10.0 mi WNW 4.6 mph - N/A   Clear
11:15 PM 34.7 °F 30.6 °F 20.1 °F 55% 30.09 in 10.0 mi WSW 4.6 mph - N/A   Clear
11:35 PM 33.3 °F 28.9 °F 20.5 °F 59% 30.09 in 10.0 mi WSW 4.6 mph - N/A   Clear
11:55 PM 32.0 °F 25.6 °F 21.9 °F 66% 30.10 in 10.0 mi West 6.9 mph - N/A   Clear